RH
75 51 44 28 31 39 45 32 28 22 40 84 75 86 89 91 80 84 93 87 85 90 90 92 91 90 89 88 88 88 87 86 83 82 81 79 76 74 73 74 72 68 60 57 60 65 74 79 79
51 42 32 28 31 35 26 27 54 75 68 80 70 76 87 95 88 94 92 94 87 87 90 92 91 89 89 88 88 87 85 85 84 80 77 76 72 71 70 72 72 68 62 59 61 67 76 80 84
34 27 32 32 36 28 24 22 78 71 68 74 86 87 92 92 88 88 92 92 88 87 82 92 92 90 89 89 88 88 88 87 85 82 77 74 70 68 69 76 72 67 64 60 61 68 78 83 84
23 22 24 28 38 21 22 64 79 76 71 69 80 92 84 91 92 90 90 88 89 88 89 96 94 92 90 90 90 90 90 89 85 82 79 73 67 68 72 77 73 69 65 60 62 66 74 82 85
26 27 31 32 24 20 74 74 76 73 74 70 71 96 95 94 90 95 88 91 91 95 97 94 93 93 91 90 90 91 91 88 86 83 79 76 73 72 79 81 79 74 70 66 67 70 77 82 83
33 26 29 34 26 40 74 72 76 71 69 75 88 94 93 90 91 94 95 97 95 96 97 89 86 88 85 82 84 92 92 89 88 85 81 79 80 82 81 82 80 78 78 78 78 81 79 78 82
33 34 40 29 23 20 70 72 74 75 71 76 82 96 93 96 94 96 97 95 95 95 95 96 90 87 86 91 94 94 92 92 91 88 87 86 86 86 84 82 80 79 79 80 81 84 84 79 81
31 29 43 26 25 24 73 72 79 76 79 72 76 95 92 98 97 95 96 96 95 95 96 96 96 96 95 90 93 94 93 93 90 87 87 87 86 85 84 84 82 81 81 82 82 81 85 82 81
26 30 36 28 28 29 77 74 78 75 71 83 94 87 92 96 94 96 98 97 96 96 96 98 97 94 96 96 91 90 90 90 88 86 88 89 87 84 84 84 83 83 84 82 80 78 76 76 78
27 33 27 20 22 65 73 73 76 74 72 90 85 90 93 96 94 96 96 98 98 98 98 97 95 90 96 82 93 92 86 89 88 85 85 86 91 89 83 86 86 86 82 78 74 70 67 60 58
27 28 22 22 60 60 65 79 82 80 77 84 86 93 93 89 92 93 93 93 93 93 97 96 97 94 95 93 93 92 90 90 88 85 87 88 92 92 96 98 96 85 72 66 62 56 55 57 56
29 21 22 57 60 58 63 78 77 79 86 75 81 86 89 91 94 94 96 96 92 93 92 90 86 94 95 92 90 89 85 87 91 92 91 96 99 98 96 94 92 82 77 70 67 64 60 58 56
24 38 54 61 58 59 62 68 67 89 95 84 80 82 85 89 93 92 88 89 90 92 90 84 80 95 94 91 89 88 90 90 92 94 94 97 98 96 94 91 82 78 74 67 65 63 58 58 57
48 50 57 65 62 62 51 61 64 93 90 82 84 90 88 89 89 88 89 86 78 77 83 83 93 94 91 90 90 92 97 98 98 98 96 95 96 94 93 92 89 86 72 69 66 64 63 63 59
48 50 47 56 60 52 54 62 76 86 88 81 85 81 88 88 80 77 78 82 80 72 83 87 96 91 94 90 94 98 98 98 98 98 97 95 93 88 85 86 80 78 66 64 63 67 67 64 57
44 44 57 45 42 42 48 58 74 77 86 76 76 89 89 81 77 77 71 72 71 73 84 83 77 89 92 95 96 99 99 98 98 98 92 86 87 82 81 75 76 75 70 67 64 66 68 69 63
37 45 52 43 39 37 43 56 63 71 84 93 82 87 88 79 76 75 73 73 72 75 77 80 90 94 95 96 98 98 97 99 98 93 85 80 80 80 76 84 85 78 76 72 64 70 69 66 65
45 44 41 43 33 43 48 49 74 66 83 91 93 91 86 80 69 77 85 83 81 80 82 95 96 96 97 98 98 98 98 98 97 93 86 80 81 81 84 80 82 78 76 74 70 70 76 72 70
36 44 45 40 32 39 42 44 69 69 83 92 96 96 91 83 73 76 83 85 80 83 93 96 97 98 95 97 98 98 98 96 94 78 78 77 79 78 80 80 75 75 71 70 68 74 70 76 79
43 45 44 38 34 39 50 47 42 68 74 74 90 95 88 82 78 75 87 89 81 83 92 96 95 96 93 86 97 93 96 95 86 81 81 83 82 79 74 75 73 73 74 73 73 74 80 80 81
44 46 49 42 38 44 43 43 46 54 64 61 73 79 81 76 77 72 80 86 82 85 92 94 94 95 90 93 96 97 96 89 89 91 87 83 81 79 74 74 75 77 76 75 76 76 74 77 81
50 38 43 46 41 42 38 44 43 49 58 60 61 78 80 78 69 68 75 86 84 83 92 92 95 95 94 94 96 92 95 86 86 89 86 84 81 78 74 74 76 77 79 73 80 72 81 81 79
41 41 45 43 45 57 49 43 35 53 60 57 56 67 71 74 71 68 68 76 83 93 96 97 96 95 95 94 94 93 92 90 90 88 85 86 79 73 71 74 77 73 80 74 76 80 83 86 85
38 46 44 52 53 55 48 47 45 50 47 46 49 51 59 59 65 62 68 87 95 98 99 98 97 96 96 96 96 94 93 89 92 91 93 87 85 78 73 65 70 75 70 67 72 75 75 84 88
41 46 58 60 66 57 49 54 46 38 32 39 48 49 51 54 71 73 86 93 97 98 99 98 96 97 96 96 96 95 93 86 86 89 88 80 78 76 73 70 74 66 64 64 71 72 73 77 82
48 43 61 54 60 51 49 56 38 37 40 42 40 47 50 59 69 77 81 94 95 96 97 96 96 95 97 96 95 97 92 93 88 85 77 78 76 71 77 83 80 65 61 68 71 76 81 87 91
52 54 46 63 70 73 56 42 27 38 51 58 68 64 62 62 74 85 92 93 95 96 95 96 94 95 96 96 97 94 94 88 80 72 67 79 83 78 86 88 80 61 62 68 76 82 82 87 87
40 47 56 67 60 57 49 49 40 32 36 54 74 74 80 74 76 90 96 94 94 94 91 95 96 94 90 90 90 86 78 70 65 74 83 81 88 83 92 80 65 63 67 74 81 84 84 85 87
50 52 53 54 63 59 69 48 41 38 40 45 53 64 83 91 91 90 93 94 96 95 98 97 92 82 79 77 78 74 68 73 82 83 85 81 87 91 73 65 64 65 72 77 81 83 83 83 80
45 46 51 66 54 70 70 60 34 33 39 48 50 53 79 90 93 93 93 94 96 96 96 91 87 77 76 73 78 80 74 72 79 83 84 89 84 72 68 66 65 67 70 77 82 82 76 83 80
Wind_Speed
5 4 3 5 6 6 4 6 3 6 5 2 4 1 1 3 3 2 2 1 15 14 16 15 19 21 22 23 22 21 21 22 22 20 18 18 18 17 17 17 18 18 19 17 16 15 15 13 13
5 2 5 3 6 3 6 5 4 3 4 2 4 3 4 2 4 4 3 2 12 14 14 14 18 20 21 21 21 21 19 22 19 19 19 18 18 16 18 18 18 18 19 19 17 17 17 18 18
6 4 4 5 4 4 5 4 3 5 5 3 3 4 1 3 2 4 3 7 11 12 13 13 17 18 20 20 20 19 18 19 16 18 17 17 16 17 17 15 17 18 19 20 18 19 18 18 18
4 5 5 6 2 6 6 5 4 1 1 3 4 5 1 1 2 5 7 10 12 11 12 11 15 17 18 19 18 17 20 17 17 16 15 16 15 16 15 14 17 18 19 21 18 18 16 14 14
5 4 5 2 4 4 4 4 3 3 4 2 5 6 2 3 10 10 7 8 11 9 9 11 16 17 19 19 18 15 17 13 16 14 14 14 13 14 13 13 15 16 17 18 17 16 15 14 12
5 4 5 2 4 4 4 4 2 2 1 1 4 2 2 8 9 9 10 10 7 7 6 12 18 17 18 18 16 14 14 16 14 12 13 14 12 12 11 12 12 13 14 15 15 11 12 14 13
6 5 2 3 4 6 4 5 2 2 1 3 4 4 2 7 8 11 12 12 10 9 11 7 8 14 15 13 11 10 10 16 12 10 12 12 11 10 11 11 12 12 12 14 15 13 13 13 14
5 5 3 4 2 7 1 0 1 2 2 1 2 4 4 5 11 11 12 10 10 9 9 9 10 8 7 7 9 9 13 14 12 11 12 12 11 10 10 10 10 11 12 13 14 17 15 15 16
4 4 2 5 3 4 1 2 1 3 2 3 4 1 6 11 14 13 12 10 11 9 7 8 10 10 5 5 5 8 14 13 12 11 12 9 4 6 7 8 10 10 12 14 17 17 16 16 17
5 4 7 6 4 2 2 3 2 2 2 3 6 9 11 12 12 13 13 11 8 11 9 9 10 11 5 5 4 6 6 5 5 6 6 4 5 5 5 7 10 11 16 16 17 16 15 12 7
4 7 6 6 3 5 3 2 1 1 2 4 10 11 8 10 9 10 8 11 17 15 7 2 5 6 6 4 3 3 4 3 4 6 5 4 3 4 3 3 4 5 10 5 8 8 6 9 6
2 6 5 1 4 4 5 3 2 2 3 4 12 11 9 10 11 11 13 15 18 16 10 5 3 2 4 4 3 3 3 3 3 4 6 4 3 4 4 4 5 5 4 6 6 5 6 8 8
3 3 3 4 5 4 5 2 2 6 7 11 13 11 13 12 10 11 13 16 16 15 16 19 10 3 3 5 4 3 3 4 4 4 4 4 4 4 5 5 4 5 5 5 6 5 5 6 7
1 4 2 3 4 3 3 2 3 2 8 11 11 10 9 9 9 11 13 16 15 17 16 13 9 6 5 5 5 4 3 3 3 4 4 5 5 5 5 5 5 5 5 4 5 5 5 5 5
2 4 5 1 3 4 4 3 4 7 8 10 12 10 8 6 8 12 12 10 12 12 8 7 7 6 6 7 5 3 3 4 4 3 5 7 5 6 6 5 5 4 5 7 5 5 5 5 3
4 5 3 3 4 1 4 1 4 7 9 6 7 7 7 11 10 11 13 9 8 5 5 4 6 7 7 6 4 3 4 4 4 4 4 7 6 7 5 6 5 4 4 4 4 4 4 3 3
6 1 1 7 4 3 3 2 5 5 7 6 6 9 9 8 8 8 11 12 12 9 6 7 7 7 7 6 5 4 5 4 3 3 5 6 7 6 6 5 4 5 4 4 3 3 3 2 2
4 3 3 5 3 3 1 3 5 5 5 9 7 7 7 11 15 7 8 6 7 7 6 7 6 7 7 5 5 3 4 3 3 4 4 7 5 6 6 5 5 5 4 4 3 3 3 2 2
5 2 3 5 5 4 6 4 10 9 4 7 7 8 10 15 13 7 7 8 7 7 7 9 10 8 8 5 4 3 3 2 2 3 6 6 6 6 6 4 5 4 5 4 3 3 2 2 2
2 1 6 8 3 5 3 6 5 13 13 11 13 10 13 10 8 8 8 9 9 9 9 8 9 11 8 6 3 3 4 2 2 3 4 5 6 6 6 6 5 5 4 5 3 2 1 1 1
3 3 4 7 3 1 6 4 5 5 6 7 9 11 10 14 14 10 12 12 10 12 12 13 12 12 10 7 5 4 3 4 3 1 2 4 6 6 6 6 5 5 4 4 2 3 3 2 2
3 6 3 3 2 2 0 4 6 5 10 8 12 12 14 13 11 10 11 11 13 12 8 10 10 11 7 8 6 8 4 5 4 4 3 4 5 5 6 6 6 6 3 4 2 2 2 3 2
9 2 1 2 3 2 1 3 7 1 6 13 14 14 15 14 14 14 15 14 8 8 9 9 9 10 8 9 8 7 5 3 3 3 6 5 5 6 6 7 6 5 5 3 5 3 3 2 2
3 2 6 5 3 2 2 5 6 5 12 10 11 13 15 14 12 10 7 8 6 6 7 8 11 11 10 9 8 9 8 7 5 5 5 4 3 4 5 4 5 6 4 4 5 4 4 3 3
5 4 4 5 5 5 1 2 10 4 6 9 12 16 16 14 10 10 11 11 11 12 9 7 11 12 11 12 10 9 8 8 9 7 6 7 4 3 5 5 4 2 4 4 5 4 3 3 2
4 6 6 2 2 5 3 5 7 5 5 8 8 10 9 11 12 13 13 12 12 11 11 13 13 12 12 12 10 7 7 5 5 7 7 6 5 6 4 4 2 4 4 4 4 2 3 4 4
3 2 5 7 3 2 4 8 10 2 0 1 4 4 9 12 13 15 12 13 12 13 14 14 12 10 10 9 7 7 6 8 7 9 9 7 7 5 5 6 7 6 5 4 4 3 4 4 3
2 7 4 3 2 3 5 5 6 8 9 2 3 7 7 7 8 9 12 13 11 11 10 9 9 10 7 8 8 7 8 9 11 10 9 8 7 5 5 5 4 4 4 5 5 4 4 5 3
3 0 5 5 5 5 1 7 8 7 6 7 6 7 7 7 7 8 9 8 8 8 8 10 9 9 9 9 8 10 8 7 8 7 7 8 6 6 4 5 6 5 6 6 5 6 6 6 5
5 7 7 6 4 2 5 8 5 8 6 5 7 6 7 7 9 9 10 9 10 11 12 12 8 6 6 7 8 10 10 10 9 7 6 4 3 3 6 7 6 4 6 6 6 6 6 6 6
Wind_Direction
95 71 83 41 59 64 262 261 286 280 8 10 182 45 121 6 155 210 68 3 140 137 135 133 136 131 127 124 124 123 122 119 120 123 121 121 119 116 113 108 104 100 98 97 92 90 94 100 120
109 104 49 82 94 64 274 255 262 267 255 239 71 273 34 82 56 104 94 173 139 133 131 134 135 133 130 127 127 125 127 115 126 123 123 123 122 120 115 107 102 102 102 99 85 80 84 87 106
105 50 85 90 107 164 238 242 297 309 296 15 72 65 29 0 96 112 112 150 125 128 137 140 137 133 128 126 125 122 126 118 124 119 124 122 121 118 113 108 106 103 98 90 82 79 84 86 100
87 17 36 82 226 242 213 287 303 179 262 88 128 78 95 145 337 121 148 124 131 138 139 143 136 127 125 121 120 128 112 123 124 118 121 120 120 116 111 103 99 97 95 94 85 79 79 80 95
43 58 53 60 269 259 252 269 266 232 190 183 171 170 109 49 109 106 117 114 129 135 138 138 130 125 123 120 119 125 113 128 108 119 119 117 117 114 103 98 95 99 99 95 89 80 77 78 84
52 90 50 284 271 262 258 205 291 266 2 125 75 64 74 115 115 117 82 72 75 117 132 142 138 132 120 116 131 115 133 119 113 121 120 116 109 108 103 96 93 88 92 92 85 83 80 82 87
108 85 175 248 262 300 249 146 226 284 296 56 132 78 27 122 108 97 91 85 83 108 100 89 99 112 127 115 100 125 146 105 110 111 103 105 108 102 94 86 84 78 71 71 79 80 81 77 87
104 94 175 256 264 277 313 253 359 67 44 82 358 154 164 133 104 99 95 98 97 88 91 95 94 107 101 108 137 142 111 105 115 116 109 99 97 97 91 85 84 77 76 71 71 78 78 71 68
130 61 242 256 195 250 152 237 263 143 109 61 10 70 130 126 119 116 104 109 111 103 107 126 141 115 108 96 141 119 111 123 116 111 108 97 105 101 95 104 95 88 79 75 78 80 81 75 66
103 116 228 217 204 224 149 224 270 79 116 68 71 111 127 127 135 134 137 124 105 104 79 79 105 140 139 120 111 93 95 87 110 108 104 106 116 118 113 103 88 84 88 80 78 74 72 70 66
169 199 208 258 145 162 157 290 38 76 230 184 156 141 136 138 125 123 128 128 121 116 100 342 132 176 128 116 109 97 104 116 111 114 117 130 119 106 105 77 76 82 75 69 66 64 57 63 68
200 245 196 160 148 141 153 128 60 98 271 271 152 140 140 143 129 130 115 113 132 125 137 134 222 179 152 131 104 104 117 131 126 140 147 137 104 89 81 90 87 87 74 83 76 69 65 68 62
204 311 65 140 162 109 129 107 108 7 337 124 135 145 159 153 140 132 137 134 150 148 155 153 195 257 134 101 110 130 157 148 153 156 150 129 109 110 100 86 83 88 83 81 77 72 72 64 60
338 42 116 168 148 137 118 77 67 27 113 120 144 146 147 138 131 130 151 150 152 156 163 183 203 174 140 129 141 162 142 145 131 127 135 105 114 114 98 100 91 83 84 76 80 80 78 73 67
84 50 2 132 124 266 147 68 81 154 166 170 152 138 145 177 145 147 164 160 163 171 170 186 176 153 150 144 141 137 153 131 125 123 112 118 109 107 121 114 95 98 100 91 94 79 69 64 58
55 49 3 296 130 58 116 259 134 171 160 179 130 143 165 200 153 179 173 169 185 183 192 167 147 158 136 138 143 152 136 119 115 115 114 117 118 121 117 115 115 118 106 105 91 93 77 81 67
14 245 276 316 171 163 127 133 166 201 177 175 176 152 179 205 168 184 184 185 195 203 176 158 149 150 134 120 121 120 114 104 108 126 119 122 118 129 120 118 119 113 106 104 116 71 104 73 45
184 196 285 250 229 69 332 132 138 209 201 185 192 153 189 198 210 186 179 176 187 179 160 137 128 130 123 107 108 88 91 114 137 123 124 124 128 131 124 124 126 125 116 107 88 104 58 94 42
156 156 237 237 264 195 215 201 175 186 207 201 203 188 192 207 213 189 190 175 175 165 153 155 145 152 142 142 134 119 148 153 134 134 136 133 139 131 126 129 128 131 114 132 128 107 107 47 43
151 301 291 297 12 166 143 248 193 177 206 200 202 200 210 199 192 203 189 178 177 173 168 157 165 164 166 161 142 141 140 142 105 122 133 150 150 144 145 135 130 123 117 111 91 88 93 90 145
272 220 247 238 359 204 125 304 270 205 179 195 213 219 216 210 203 196 192 193 181 187 178 177 177 172 167 151 117 89 77 62 81 113 148 171 155 150 127 118 121 118 116 129 147 138 145 159 255
261 202 242 246 88 232 150 254 260 229 205 198 212 208 212 208 218 207 195 198 194 194 176 173 167 171 161 150 141 151 162 167 185 171 143 131 120 113 121 120 124 135 138 135 141 139 141 136 209
231 209 156 218 150 95 275 80 269 141 236 229 214 209 214 208 204 206 203 202 190 160 169 162 156 163 170 173 159 164 182 168 144 130 135 121 115 122 135 142 145 118 112 138 125 137 148 149 157
91 73 44 40 60 41 252 135 278 195 218 233 231 215 209 209 204 205 179 170 168 145 150 160 164 175 168 177 176 185 182 171 143 136 135 123 119 135 122 118 104 135 143 154 135 151 147 170 184
81 68 352 2 13 220 210 105 238 260 270 228 220 220 204 197 187 178 169 173 167 178 166 183 179 183 183 181 186 191 194 174 160 153 143 149 142 137 130 120 116 124 159 171 146 158 169 185 181
178 149 149 237 224 275 313 240 255 177 252 270 254 234 192 185 189 191 183 176 176 172 182 189 195 190 177 187 190 188 171 162 151 146 148 154 153 144 131 73 118 177 169 162 179 146 184 184 181
177 133 164 109 14 34 258 299 308 356 349 307 307 202 195 189 188 192 179 180 171 179 202 198 196 189 173 176 172 167 161 158 162 149 153 151 142 133 129 152 194 191 178 195 171 191 202 195 194
206 154 91 25 173 265 297 289 245 312 316 305 228 217 228 216 191 178 180 180 175 186 192 189 191 189 166 167 168 157 148 154 154 140 135 139 133 134 161 186 225 188 201 201 192 206 219 208 220
119 128 48 111 136 176 242 270 218 245 277 281 258 226 198 201 203 197 195 184 166 166 163 192 180 166 171 171 156 154 148 124 111 117 138 149 137 148 185 178 188 207 214 214 204 217 216 215 223
157 193 153 138 209 161 154 269 263 248 265 259 273 261 198 193 193 192 191 176 165 169 181 184 175 149 123 113 108 106 108 112 114 107 107 117 166 233 164 198 203 202 220 220 220 226 218 217 230